Cloud_Cover
0 0 0 1 19 18 12 0 0 0 0 0 0 0 0 0 0 0 0 5 5 5 3 3 0 3 4 1 5 14 0 1
5 4 7 27 98 41 32 10 2 0 0 0 0 0 0 0 0 0 0 0 3 5 5 5 5 5 5 5 5 3 1 0
5 0 0 3 18 44 32 31 23 8 0 3 94 11 2 0 0 0 0 0 0 1 0 5 0 3 5 40 42 3 0 0
0 0 0 0 0 7 45 73 85 59 22 68 43 22 16 1 0 0 0 0 5 5 0 1 0 11 5 14 5 5 5 0
0 0 0 0 0 2 15 56 88 80 42 63 32 2 0 0 12 10 37 4 11 36 12 9 5 34 34 5 5 5 8 2
2 1 0 62 27 95 54 5 34 60 51 37 24 0 2 0 9 65 58 17 12 24 29 32 5 5 18 5 5 5 3 52
1 0 2 0 74 100 100 100 78 3 6 22 6 0 1 0 0 34 38 6 11 7 99 29 17 11 33 78 93 43 88 44
6 0 1 17 0 37 100 100 100 67 71 98 18 5 6 96 8 5 0 5 6 86 5 19 89 86 21 86 100 17 100 14
4 2 0 0 0 0 84 100 100 79 99 100 100 61 22 71 100 90 7 1 7 76 92 32 5 6 5 99 77 81 77 83
64 10 5 4 4 4 2 87 100 99 100 100 100 48 49 6 66 100 41 2 5 8 44 37 88 79 78 99 94 37 47 100
80 100 70 22 6 5 3 4 50 100 85 100 100 100 100 96 100 16 9 5 1 4 24 100 100 97 100 83 100 100 74 62
53 100 100 94 5 1 1 0 41 86 95 91 100 100 100 82 98 94 77 30 4 3 5 77 100 100 100 100 96 100 100 98
1 5 4 4 0 0 0 0 0 0 9 90 89 100 100 100 23 48 22 86 0 5 10 90 100 100 100 99 57 100 100 100
1 1 0 0 0 0 4 0 0 0 0 9 73 88 100 100 100 100 100 36 5 4 5 5 97 100 100 77 12 17 8 100
5 6 73 50 0 8 38 30 1 0 0 0 3 66 100 100 100 99 12 29 13 5 5 5 11 52 100 77 22 15 33 86
24 42 100 46 9 61 87 99 27 16 2 0 0 4 91 100 100 99 5 5 7 77 97 90 70 55 91 58 5 5 53 24
97 99 100 88 100 100 100 100 88 3 3 0 0 0 35 97 100 53 91 92 73 90 98 99 87 84 97 100 100 78 22 100
90 100 100 100 100 100 100 100 100 66 2 2 0 1 6 100 100 97 97 38 100 100 100 92 34 94 94 6 100 100 78 100
87 100 100 100 100 100 100 100 100 99 36 0 0 0 27 43 100 95 100 100 100 100 100 98 5 26 61 95 46 90 100 39
100 100 100 100 100 100 100 100 100 100 82 29 2 0 40 100 100 100 100 100 99 48 98 95 100 99 100 56 19 31 100 100